Terminal Aerodrome Forecast
Issued by NWS

Home | Current Version | Previous Version | Text Only | Print | Product List | Glossary On
Versions: 1 2 3 4 5 6 7 8 9 10 11 12 13 14 15 16 17
988
FTUS43 KGRR 280530
TAFMKG
TAF
KMKG 280530Z 2806/2906 17009KT P6SM SKC
     FM281400 18014KT P6SM SCT050 BKN120
     FM281600 18016G26KT P6SM BKN050 OVC120
     FM282000 18014G24KT P6SM VCTS BKN050CB=

USA.gov is the U.S. government's official web portal to all federal, state and local government web resources and services.